Regional Weather Roundup
Issued by NWS

Home | Current Version | Previous Version | Graphics & Text | Print | Product List | Glossary On
Versions: 1 2 3 4 5 6 7 8 9 10 11 12 13 14 15 16 17 18 19 20 21 22 23 24 25 26 27 28 29 30 31 32 33 34 35 36 37 38 39 40 41 42 43 44 45 46 47 48 49 50
000
ASUS43 KFSD 310102
RWRSD

WEATHER ROUNDUP FOR SOUTH DAKOTA
NATIONAL WEATHER SERVICE SIOUX FALLS SD
800 PM CDT THU JUL 30 2015

NOTE: "FAIR" INDICATES FEW OR NO CLOUDS BELOW 12,000 FEET WITH NO
SIGNIFICANT WEATHER AND/OR OBSTRUCTIONS TO VISIBILITY.


SDZ001>005-009-010-012>017-310200-
NORTHWEST AND NORTH CENTRAL SOUTH DAKOTA

CITY           SKY/WX    TMP DP  RH WIND       PRES   REMARKS
BUFFALO          N/A     86  41  20 N7        30.12S
FAITH            N/A     86  42  21 N13       30.14F
MOBRIDGE       SUNNY     83  54  36 N7        30.09S
$$

SDZ012>016-024>037-041>051-057-063-072>074-310200-
SOUTHWEST AND SOUTH CENTRAL SOUTH DAKOTA

CITY           SKY/WX    TMP DP  RH WIND       PRES   REMARKS
RAPID CTY ARPT SUNNY     83  48  29 CALM      30.20F
PIERRE         SUNNY     86  51  29 N6        30.07F
CUSTER         SUNNY     74  44  34 E8        30.35F
ELLSWORTH AFB  SUNNY     84  50  30 S6        30.19F
PHILIP         SUNNY     87  46  24 CALM      30.13F
PINE RIDGE     SUNNY     84  49  29 NE7       30.20S
WINNER         FAIR      89  50  26 N5        30.12F
$$

SDZ004>011-016>023-039-040-310200-
NORTHEAST SOUTH DAKOTA

CITY           SKY/WX    TMP DP  RH WIND       PRES   REMARKS
ABERDEEN       CLEAR     82  54  37 N10       30.08R
WATERTOWN      CLEAR     80  59  48 W6        30.08S
BROOKINGS      CLEAR     81  61  50 SW6       30.10F
SISSETON         N/A     77  63  61 N7        30.04S
$$

SDZ017-020-022-023-036>040-048>070-310200-
SOUTHEAST SOUTH DAKOTA

CITY           SKY/WX    TMP DP  RH WIND       PRES   REMARKS
SIOUX FALLS    PTCLDY    82  61  48 W3        30.09F
HURON          CLEAR     84  62  47 W3        30.06F
CHAMBERLAIN    CLEAR     86  46  24 CALM      30.10F
MITCHELL       CLEAR     84  64  50 E3        30.09S
YANKTON        CLEAR     84  66  54 NE6       30.07S
$$

ABBREVIATIONS USED IN REMARKS
   TC - TEMPERATURE IN CELSIUS
  WCI - WIND CHILL INDEX
   HX - HEAT INDEX
  VSB - VISIBILITY




USA.gov is the U.S. government's official web portal to all federal, state and local government web resources and services.